User: anonymous   Login
Location: Unspecified
(0.0000°N, 0.0000°E)
Time: 06:38:06
(UTC+00:00)
Language:

PERSEUS M1 - Orbit

View from above orbital plane
View from above orbital plane
View from above satellite
View from above satellite

Ground track
Ground track

The orbit data is extracted from the following two-line orbital elements,

1 40039U 14033AF  18267.83212858 +.00000071 +00000-0 +14380-4 0  9996
2 40039 097.8921 178.0856 0013316 215.5576 144.4753 14.86006583231278
Epoch (UTC): 24 September 2018 19:58:15
Eccentricity: 0.0013316
inclination: 97.8921°
perigee height: 601 km
apogee height: 620 km
right ascension of ascending node: 178.0856°
argument of perigee: 215.5576°
revolutions per day: 14.86006583
mean anomaly at epoch: 144.4753°
orbit number at epoch: 23127

The dashed part of the orbit path shows where the satellite is in the earth's shadow,  

DLR